Latest Coastal Weather Observations for Montague Island

IDN60701

Issued at 11:41 am EST Friday 23 June 2017 (issued every 10 minutes, with the page automatically refreshed every 10 minutes)

About coastal observations | Map of coastal stations | Coastal observations for NSW | Marine services | Other Formats
Station Details ID: 069017 Name: MONTAGUE ISLAND LIGHTHOUSE Lat: -36.25 Lon: 150.23 Height: 52.0 m
Data from the previous 72 hours. | See also: Recent months at Montague Island
Date/Time
EST
Temp
°C
Wind Pressure Rain since
9am
mm
Weather Cloud Vis
km
Sea
Height
m
Swell
Dir  Spd
kts
Gust
kts
hPa Trend Height
m
Period
s
Dir
23/11:30am 15.5 NW 4 6 1016.3 - 0.0 - - - - - - -
23/11:00am 15.4 WNW 5 7 1017.1 - 0.0 - - - - - - -
23/10:30am 14.4 NW 6 8 1017.8 - 0.0 - - - - - - -
23/10:00am 14.1 WNW 6 7 1018.0 - 0.0 - - - - - - -
23/09:30am 13.5 WNW 6 8 1018.6 - 0.0 - - - - - - -
23/09:00am 12.9 WNW 5 7 1018.7 - 0.0 - - - - - - -
23/08:30am 11.6 WNW 5 7 1018.7 - 0.0 - - - - - - -
23/08:00am 11.4 W 5 6 1018.7 - 0.0 - - - - - - -
23/07:30am 10.7 WNW 5 6 1018.7 - 0.0 - - - - - - -
23/07:00am 11.1 WSW 5 7 1018.8 - 0.0 - - - - - - -
23/06:30am 11.1 WSW 4 6 1018.8 - 0.0 - - - - - - -
23/06:00am 10.8 W 5 7 1018.8 - 0.0 - - - - - - -
23/05:30am 11.0 W 5 7 1018.8 - 0.0 - - - - - - -
23/05:00am 11.2 W 5 6 1018.7 - 0.0 - - - - - - -
23/04:30am 11.6 W 5 6 1019.0 - 0.0 - - - - - - -
23/04:00am 11.9 WSW 5 7 1019.4 - 0.0 - - - - - - -
23/03:30am 12.1 WSW 4 5 1019.7 - 0.0 - - - - - - -
23/03:00am 12.1 WSW 5 7 1020.1 - 0.0 - - - - - - -
23/02:30am 12.3 SW 6 7 1020.5 - 0.0 - - - - - - -
23/02:00am 12.8 SW 5 7 1020.7 - 0.0 - - - - - - -
23/01:30am 12.9 WSW 4 6 1020.9 - 0.0 - - - - - - -
23/01:00am 13.4 WSW 5 7 1021.0 - 0.0 - - - - - - -
23/12:30am 13.0 SW 5 7 1021.1 - 0.0 - - - - - - -
23/12:00am 13.1 WSW 5 6 1021.6 - 0.0 - - - - - - -
 
Date/Time
EST
Temp
°C
Wind Pressure Rain since
9am
mm
Weather Cloud Vis
km
Sea
Height
m
Swell
Dir  Spd
kts
Gust
kts
hPa Trend Height
m
Period
s
Dir
22/11:30pm 13.6 WSW 6 8 1022.4 - 0.0 - - - - - - -
22/11:00pm 13.6 WSW 5 7 1022.6 - 0.0 - - - - - - -
22/10:30pm 14.0 WSW 5 7 1022.9 - 0.0 - - - - - - -
22/10:00pm 14.1 SW 3 5 1023.2 - 0.0 - - - - - - -
22/09:30pm 14.1 SSW 4 5 1023.3 - 0.0 - - - - - - -
22/09:00pm 14.2 SSW 3 5 1023.5 - 0.0 - - - - - - -
22/08:30pm 14.4 WSW 1 2 1023.9 - 0.0 - - - - - - -
22/08:00pm 14.6 NNW 2 3 1024.0 - 0.0 - - - - - - -
22/07:30pm 14.4 NNW 2 5 1024.1 - 0.0 - - - - - - -
22/07:00pm 14.3 N 4 5 1024.1 - 0.0 - - - - - - -
22/06:30pm 14.2 N 4 5 1024.0 - 0.0 - - - - - - -
22/06:00pm 14.1 NNE 4 6 1023.8 - 0.0 - - - - - - -
22/05:30pm 14.1 ENE 4 6 1023.6 - 0.0 - - - - - - -
22/05:00pm 13.9 ENE 5 7 1023.6 - 0.0 - - - - - - -
22/04:30pm 13.9 E 5 8 1023.5 - 0.0 - - - - - - -
22/04:00pm 14.0 ENE 5 7 1023.8 - 0.0 - - - - - - -
22/03:30pm 13.9 E 5 8 1024.0 - 0.0 - - - - - - -
22/03:00pm 14.1 ENE 5 7 1024.2 - 0.0 - - - - - - -
22/02:30pm 14.5 ENE 5 7 1024.3 - 0.0 - - - - - - -
22/02:00pm 14.6 ENE 4 6 1024.4 - 0.0 - - - - - - -
22/01:30pm 14.8 NE 4 6 1024.6 - 0.0 - - - - - - -
22/01:00pm 14.9 NNE 4 6 1025.0 - 0.0 - - - - - - -
22/12:30pm 14.9 NNE 4 6 1025.3 - 0.0 - - - - - - -
22/12:00pm 15.1 NNE 2 5 1026.0 - 0.0 - - - - - - -
22/11:30am 14.8 CALM 0 2 1026.7 - 0.0 - - - - - - -
22/11:00am 14.5 SE 2 5 1027.1 - 0.0 - - - - - - -
22/10:30am 14.5 SSW 3 5 1027.6 - 0.0 - - - - - - -
22/10:00am 14.6 SSW 4 6 1027.9 - 0.0 - - - - - - -
22/09:30am 14.8 WSW 5 8 1028.2 - 0.0 - - - - - - -
22/09:00am 13.9 WSW 5 7 1028.2 - 0.0 - - - - - - -
22/08:30am 12.9 SSW 6 8 1028.0 - 0.0 - - - - - - -
22/08:00am 12.8 SW 6 8 1028.1 - 0.0 - - - - - - -
22/07:30am 12.6 SW 6 8 1028.0 - 0.0 - - - - - - -
22/07:00am 12.4 SW 5 8 1027.9 - 0.0 - - - - - - -
22/06:30am 12.6 SW 6 7 1027.5 - 0.0 - - - - - - -
22/06:00am 12.6 SW 6 7 1027.3 - 0.0 - - - - - - -
22/05:30am 12.6 SW 6 9 1027.2 - 0.0 - - - - - - -
22/05:00am 12.6 SSW 6 9 1027.2 - 0.0 - - - - - - -
22/04:30am 12.6 SW 7 9 1027.1 - 0.0 - - - - - - -
22/04:00am 12.7 SW 7 10 1027.2 - 0.0 - - - - - - -
22/03:30am 12.8 SW 8 10 1027.3 - 0.0 - - - - - - -
22/03:00am 12.8 SSW 8 11 1027.4 - 0.0 - - - - - - -
22/02:30am 12.8 SSW 9 11 1027.4 - 0.0 - - - - - - -
22/02:00am 12.9 SSW 9 12 1027.6 - 0.0 - - - - - - -
22/01:30am 12.9 SW 9 12 1027.7 - 0.0 - - - - - - -
22/01:00am 13.1 SSW 10 13 1027.8 - 0.0 - - - - - - -
22/12:30am 13.2 SSW 10 13 1028.0 - 0.0 - - - - - - -
22/12:00am 13.1 SSW 9 12 1028.0 - 0.0 - - - - - - -
 
Date/Time
EST
Temp
°C
Wind Pressure Rain since
9am
mm
Weather Cloud Vis
km
Sea
Height
m
Swell
Dir  Spd
kts
Gust
kts
hPa Trend Height
m
Period
s
Dir
21/11:30pm 13.2 SSW 11 14 1028.3 - 0.0 - - - - - - -
21/11:00pm 13.4 SW 10 13 1028.5 - 0.0 - - - - - - -
21/10:30pm 13.4 SSW 12 15 1028.5 - 0.0 - - - - - - -
21/10:00pm 13.6 SSW 11 14 1028.4 - 0.0 - - - - - - -
21/09:30pm 13.8 SSW 11 13 1028.3 - 0.0 - - - - - - -
21/09:00pm 13.8 SSW 12 15 1028.1 - 0.0 - - - - - - -
21/08:30pm 13.9 SSW 12 16 1028.1 - 0.0 - - - - - - -
21/08:00pm 14.1 SSW 12 15 1028.0 - 0.0 - - - - - - -
21/07:30pm 14.3 SSW 11 13 1028.0 - 0.0 - - - - - - -
21/07:00pm 14.6 SSW 12 16 1027.8 - 0.0 - - - - - - -
21/06:30pm 14.7 S 14 16 1027.5 - 0.0 - - - - - - -
21/06:00pm 15.0 S 13 16 1027.1 - 0.0 - - - - - - -
21/05:30pm 15.0 S 11 14 1026.6 - 0.0 - - - - - - -
21/05:00pm 14.9 S 11 14 1026.4 - 0.0 - - - - - - -
21/04:30pm 15.2 S 12 15 1026.3 - 0.0 - - - - - - -
21/04:00pm 15.0 SSW 4 6 1026.0 - 0.0 - - - - - - -
21/03:30pm 15.4 SSW 4 6 1025.7 - 0.0 - - - - - - -
21/03:00pm 15.4 SSE 5 7 1025.7 - 0.0 - - - - - - -
21/02:30pm 15.4 SSE 4 6 1025.5 - 0.0 - - - - - - -
21/02:00pm 15.6 SSE 5 7 1025.4 - 0.0 - - - - - - -
21/01:30pm 15.9 SSE 5 7 1025.5 - 0.0 - - - - - - -
21/01:00pm 15.8 SE 4 7 1025.7 - 0.0 - - - - - - -
21/12:30pm 16.8 WSW 2 4 1025.9 - 0.0 - - - - - - -
21/12:00pm 16.9 W 3 5 1026.2 - 0.0 - - - - - - -
21/11:30am 17.1 W 4 5 1026.5 - 0.0 - - - - - - -
21/11:00am 16.3 W 4 6 1026.7 - 0.0 - - - - - - -
21/10:30am 15.5 W 4 7 1027.0 - 0.0 - - - - - - -
21/10:00am 14.7 WNW 5 7 1027.1 - 0.0 - - - - - - -
21/09:30am 14.2 W 5 7 1026.9 - 0.0 - - - - - - -
21/09:00am 13.2 WNW 5 6 1026.5 - 0.0 - - - - - - -
21/08:30am 13.7 WSW 5 7 1026.3 - 0.0 - - - - - - -
21/08:00am 12.9 WSW 5 8 1025.9 - 0.0 - - - - - - -
21/07:30am 12.4 SW 7 8 1025.8 - 0.0 - - - - - - -
21/07:00am 12.1 SW 8 10 1025.6 - 0.0 - - - - - - -
21/06:30am 12.2 SSW 8 10 1025.2 - 0.0 - - - - - - -
21/06:00am 12.2 SSW 8 10 1024.6 - 0.0 - - - - - - -
21/05:30am 12.5 SSW 8 10 1024.2 - 0.0 - - - - - - -
21/05:00am 12.6 SW 7 9 1023.7 - 0.0 - - - - - - -
21/04:30am 12.5 SW 6 7 1023.4 - 0.0 - - - - - - -
21/04:00am 12.4 SW 6 8 1023.2 - 0.0 - - - - - - -
21/03:30am 12.5 SSW 6 7 1023.2 - 0.0 - - - - - - -
21/03:00am 12.5 SSW 7 9 1023.1 - 0.0 - - - - - - -
21/02:30am 12.6 SW 7 9 1023.2 - 0.0 - - - - - - -
21/02:00am 12.6 SW 7 9 1023.3 - 0.0 - - - - - - -
21/01:30am 12.6 SW 6 8 1023.1 - 0.0 - - - - - - -
21/01:00am 12.6 SSW 5 7 1023.1 - 0.0 - - - - - - -
21/12:30am 12.8 WSW 4 5 1023.1 - 0.0 - - - - - - -
21/12:00am 13.4 W 5 7 1023.4 - 0.0 - - - - - - -
 
Date/Time
EST
Temp
°C
Wind Pressure Rain since
9am
mm
Weather Cloud Vis
km
Sea
Height
m
Swell
Dir  Spd
kts
Gust
kts
hPa Trend Height
m
Period
s
Dir
20/11:30pm 13.4 SW 4 7 1023.5 - 0.0 - - - - - - -
20/11:00pm 13.5 SW 4 6 1023.9 - 0.0 - - - - - - -
20/10:30pm 13.8 WSW 5 7 1023.8 - 0.0 - - - - - - -
20/10:00pm 13.9 WSW 4 6 1023.9 - 0.0 - - - - - - -
20/09:30pm 13.8 WSW 4 5 1024.0 - 0.0 - - - - - - -
20/09:00pm 14.0 W 4 5 1024.1 - 0.0 - - - - - - -
20/08:30pm 14.2 WNW 4 5 1024.0 - 0.0 - - - - - - -
20/08:00pm 14.5 WNW 5 7 1024.1 - 0.0 - - - - - - -
20/07:30pm 15.1 WNW 4 6 1023.9 - 0.0 - - - - - - -
20/07:00pm 14.9 N 6 8 1023.9 - 0.0 - - - - - - -
20/06:30pm 15.1 N 6 7 1023.8 - 0.0 - - - - - - -
20/06:00pm 15.2 N 6 8 1023.8 - 0.0 - - - - - - -
20/05:30pm 14.9 N 5 7 1023.8 - 0.0 - - - - - - -
20/05:00pm 15.3 NNE 6 8 1023.8 - 0.0 - - - - - - -
20/04:30pm 15.3 NNE 7 9 1023.9 - 0.0 - - - - - - -
20/04:00pm 15.4 NNE 6 8 1023.9 - 0.0 - - - - - - -
20/03:30pm 15.6 NNE 7 10 1024.0 - 0.0 - - - - - - -
20/03:00pm 15.8 NNE 8 11 1023.8 - 0.0 - - - - - - -
20/02:30pm 15.5 NNE 8 10 1024.1 - 0.0 - - - - - - -
20/02:00pm 15.9 NNE 8 10 1024.3 - 0.0 - - - - - - -
20/01:30pm 15.9 NNE 7 10 1024.5 - 0.0 - - - - - - -
20/01:00pm 15.6 NNE 7 9 1024.9 - 0.0 - - - - - - -
20/12:30pm 15.8 N 6 9 1025.6 - 0.0 - - - - - - -
20/12:00pm 15.3 N 6 9 1026.1 - 0.0 - - - - - - -

Other Formats:

Comma delimited format used in spreadsheet applications
http://www.bom.gov.au/fwo/IDN60701/IDN60701.94939.axf

JavaScript Object Notation format (JSON) in row-major order
http://www.bom.gov.au/fwo/IDN60701/IDN60701.94939.json